Temp
5 7 9 7 5 5 4 4 5 6 5 2 3 3 4 2 -1 -1 -2 -3 -5 -6 -7 -8 -8 -7 -5 -4 -4 -3 -2 -0 -0 2 4 6 7 7 7 8 8 9 9 9
6 9 6 5 4 4 5 5 6 5 4 3 3 3 3 1 0 -2 -3 -4 -6 -7 -8 -8 -8 -6 -6 -5 -5 -4 -2 -1 -1 -1 2 5 6 7 7 7 7 7 8 9
7 6 4 4 5 4 6 5 5 3 3 2 2 3 0 -1 -2 -2 -3 -5 -7 -8 -8 -9 -9 -7 -6 -6 -6 -4 -2 -2 -2 -1 1 3 5 6 7 7 7 7 8 8
6 4 4 5 4 3 3 4 2 2 0 4 -0 4 3 1 -0 -1 -3 -5 -7 -8 -9 -9 -9 -7 -7 -7 -6 -5 -3 -2 -3 -2 0 3 4 5 5 5 6 6 7 8
6 4 4 3 4 2 4 2 1 0 -1 -1 1 0 5 -1 0 -1 -3 -6 -8 -9 -9 -9 -10 -8 -7 -7 -6 -5 -4 -2 -2 -2 -1 2 2 3 4 5 5 6 7 8
4 1 2 3 2 2 2 1 1 -1 -0 1 1 1 5 2 -2 -3 -4 -7 -8 -9 -9 -9 -10 -9 -8 -7 -7 -6 -4 -3 -2 -2 -1 1 2 3 3 4 4 4 6 5
4 3 2 1 3 2 1 2 6 5 4 6 1 1 4 -2 -4 -5 -8 -9 -10 -9 -10 -10 -10 -10 -9 -8 -7 -5 -4 -3 -2 -2 -1 -0 1 1 1 2 3 3 4 5
6 8 2 -0 1 1 0 0 3 4 5 4 1 1 4 -4 -6 -8 -10 -11 -9 -10 -10 -10 -11 -10 -10 -8 -6 -5 -5 -4 -3 -2 -1 -0 1 0 2 2 2 3 4 5
5 5 0 -0 -1 0 -0 2 -1 -1 -3 -2 2 3 -3 -4 -4 -5 -9 -8 -9 -10 -11 -11 -11 -11 -11 -10 -7 -6 -5 -5 -4 -3 -1 -0 1 1 1 3 3 3 4 4
1 5 2 -0 -1 -1 1 -0 0 -1 2 4 5 2 3 -2 -5 -6 -9 -9 -10 -11 -11 -11 -11 -12 -11 -10 -9 -7 -6 -6 -6 -4 -3 -1 -0 -0 1 1 3 3 3 3
-1 0 2 -0 -0 2 -0 0 -1 -1 -1 2 2 5 -3 -5 -7 -8 -9 -10 -11 -11 -12 -12 -12 -12 -11 -10 -9 -9 -8 -7 -7 -6 -5 -4 -3 -2 -1 -0 1 1 2 1
-0 0 4 2 -4 -3 -2 -1 -0 1 1 -1 -1 1 -5 -7 -9 -10 -10 -11 -11 -11 -12 -13 -12 -11 -11 -10 -10 -10 -9 -9 -8 -7 -6 -5 -5 -4 -3 -2 -1 -1 -0 0
-1 3 6 4 -1 -2 -3 -3 -3 -4 -4 -1 1 6 -7 -9 -9 -11 -11 -12 -12 -12 -13 -12 -12 -11 -11 -11 -10 -10 -10 -9 -9 -8 -7 -6 -6 -5 -5 -4 -3 -2 -2 -2
-0 0 2 8 5 -1 -1 -3 -3 -2 -1 0 -0 1 -1 -4 -8 -10 -12 -13 -13 -13 -13 -12 -12 -12 -12 -11 -11 -10 -10 -9 -10 -9 -8 -7 -7 -6 -6 -5 -4 -4 -3 -3
-0 0 -4 -2 -6 -6 -4 -4 -4 -4 -3 0 -1 -5 -2 -5 -9 -12 -13 -14 -13 -13 -12 -13 -13 -12 -12 -11 -11 -10 -10 -10 -10 -9 -8 -7 -6 -5 -4 -4 -4 -4 -5 -6
-3 1 -4 -2 -9 -9 -5 -4 -5 -4 -5 -7 -6 -5 -4 -10 -13 -12 -13 -13 -13 -13 -12 -12 -12 -12 -12 -12 -11 -10 -10 -9 -9 -8 -7 -7 -6 -5 -5 -6 -5 -3 -3 -3
-2 -1 -1 5 -5 -4 1 -2 -5 -5 -6 -3 -0 2 -8 -7 -7 -9 -11 -12 -12 -12 -11 -11 -12 -11 -10 -10 -9 -8 -8 -8 -7 -7 -6 -6 -4 -4 -4 -4 -3 -3 -3 -4
-3 -3 -3 2 -2 8 4 -10 -7 -3 -4 -7 -6 -6 -6 -5 -6 -7 -8 -10 -9 -9 -9 -9 -9 -9 -9 -8 -7 -7 -7 -6 -6 -6 -5 -5 -5 -4 -4 -4 -3 -4 -4 -4
-3 -1 -1 1 2 5 3 -6 -4 -1 5 -4 -3 -7 -9 -8 -7 -5 -6 -8 -8 -7 -7 -8 -7 -7 -7 -6 -6 -6 -6 -6 -6 -6 -6 -5 -5 -4 -4 -4 -4 -4 -4 -4
-2 -3 -1 -2 5 8 6 -2 -6 -5 7 -5 -4 -6 -9 -7 1 -1 -4 -6 -6 -6 -5 -5 -5 -6 -6 -6 -6 -6 -6 -6 -6 -6 -5 -5 -5 -4 -4 -4 -4 -4 -4 -4
-2 -2 -2 -2 2 4 1 -3 -4 6 8 -5 -4 -5 -7 -2 1 0 -2 -3 -4 -4 -4 -4 -4 -4 -5 -6 -6 -6 -6 -5 -5 -5 -5 -5 -5 -5 -4 -4 -4 -4 -4 -4
-1 -2 -2 -2 -1 6 -4 -3 4 4 -1 0 -3 -1 -4 0 1 0 -1 -2 -2 -2 -3 -4 -4 -4 -5 -5 -5 -5 -5 -5 -5 -5 -5 -5 -5 -4 -4 -5 -5 -5 -5 -5
-0 1 2 1 5 -0 -2 2 4 3 3 1 2 2 1 1 1 1 0 -1 -1 -1 -2 -3 -4 -5 -5 -5 -5 -5 -5 -4 -4 -5 -5 -5 -5 -5 -5 -6 -6 -6 -6 -6
-2 -2 0 0 2 -0 1 3 4 3 4 5 5 3 2 3 2 1 1 0 -0 -1 -2 -2 -3 -3 -4 -4 -4 -5 -5 -5 -4 -5 -5 -5 -5 -5 -5 -5 -5 -5 -5 -5
1 -2 -0 0 2 1 4 4 5 5 4 4 4 4 4 2 2 2 1 1 0 -0 -1 -2 -2 -2 -3 -3 -4 -4 -4 -4 -4 -5 -5 -5 -5 -5 -4 -4 -5 -5 -5 -6
-2 1 3 6 6 7 7 7 6 5 5 5 5 4 3 3 3 3 2 2 1 1 0 -1 -1 -2 -2 -2 -3 -3 -3 -3 -3 -4 -4 -4 -4 -4 -5 -5 -5 -6 -6 -6
Height
1506 1501 1494 1500 1502 1504 1504 1505 1496 1488 1492 1495 1483 1477 1475 1478 1483 1483 1481 1477 1473 1470 1466 1460 1454 1449 1444 1441 1438 1436 1434 1433 1432 1431 1432 1433 1435 1437 1436 1438 1440 1440 1445 1448
1503 1492 1499 1504 1503 1503 1498 1495 1486 1486 1487 1489 1479 1468 1469 1476 1478 1482 1481 1475 1471 1466 1462 1456 1450 1445 1440 1437 1434 1433 1430 1429 1429 1428 1427 1429 1431 1434 1435 1436 1439 1440 1438 1442
1496 1498 1501 1503 1500 1499 1491 1490 1488 1492 1485 1482 1480 1460 1469 1473 1477 1478 1479 1476 1471 1465 1458 1453 1447 1443 1439 1436 1432 1429 1427 1427 1427 1424 1424 1425 1427 1429 1432 1433 1433 1435 1433 1437
1500 1502 1501 1500 1498 1502 1495 1492 1496 1491 1495 1469 1486 1458 1458 1467 1471 1474 1475 1473 1469 1464 1459 1453 1446 1441 1438 1434 1430 1426 1424 1423 1424 1421 1419 1418 1420 1425 1428 1428 1426 1428 1429 1430
1493 1500 1499 1499 1496 1501 1492 1494 1493 1493 1495 1494 1478 1481 1443 1469 1465 1468 1471 1470 1468 1463 1459 1453 1447 1441 1437 1432 1428 1424 1420 1420 1420 1417 1416 1414 1416 1418 1418 1420 1422 1423 1422 1420
1500 1503 1502 1499 1499 1500 1497 1491 1490 1495 1491 1479 1475 1472 1436 1453 1466 1468 1471 1469 1467 1463 1458 1453 1447 1442 1436 1431 1427 1422 1419 1418 1417 1415 1413 1411 1413 1413 1413 1415 1417 1416 1416 1417
1497 1499 1502 1502 1497 1498 1494 1489 1463 1458 1461 1442 1475 1472 1443 1464 1469 1470 1470 1467 1465 1462 1457 1452 1446 1441 1435 1430 1425 1421 1417 1416 1414 1413 1410 1410 1410 1410 1411 1413 1414 1415 1415 1417
1486 1475 1500 1504 1501 1499 1501 1503 1490 1479 1454 1455 1471 1465 1441 1469 1470 1470 1470 1467 1464 1461 1457 1452 1446 1441 1435 1429 1425 1420 1416 1414 1413 1411 1409 1409 1408 1408 1410 1412 1414 1414 1415 1415
1490 1487 1503 1504 1503 1503 1503 1498 1512 1510 1513 1502 1456 1451 1465 1468 1468 1467 1468 1466 1462 1459 1455 1451 1445 1440 1435 1429 1424 1421 1417 1414 1411 1409 1408 1408 1407 1408 1408 1409 1411 1412 1411 1411
1502 1487 1499 1504 1505 1505 1501 1509 1502 1507 1483 1453 1432 1453 1440 1464 1468 1464 1465 1464 1461 1458 1454 1449 1445 1440 1435 1430 1425 1421 1418 1414 1411 1409 1408 1407 1407 1407 1407 1408 1409 1409 1410 1410
1504 1504 1497 1503 1500 1491 1502 1500 1507 1510 1506 1483 1464 1431 1466 1471 1471 1467 1465 1464 1461 1457 1451 1448 1444 1439 1435 1430 1426 1422 1419 1416 1413 1411 1409 1408 1407 1407 1407 1408 1407 1408 1409 1410
1502 1502 1485 1491 1505 1504 1502 1499 1499 1491 1489 1501 1496 1456 1469 1471 1471 1468 1465 1463 1460 1455 1450 1447 1443 1439 1435 1431 1427 1424 1421 1417 1414 1413 1411 1410 1409 1409 1410 1409 1408 1410 1411 1413
1501 1492 1474 1480 1502 1503 1500 1503 1505 1508 1510 1491 1481 1431 1470 1471 1469 1465 1464 1462 1457 1452 1449 1446 1443 1439 1436 1433 1430 1427 1423 1421 1418 1416 1415 1414 1414 1414 1413 1413 1414 1415 1417 1418
1499 1498 1488 1458 1468 1491 1493 1498 1501 1499 1493 1481 1475 1453 1457 1461 1465 1462 1462 1461 1456 1453 1450 1446 1443 1440 1437 1435 1432 1429 1427 1424 1422 1421 1419 1419 1419 1420 1420 1421 1422 1423 1426 1426
1499 1496 1504 1494 1502 1503 1493 1492 1494 1495 1489 1477 1464 1481 1459 1461 1463 1462 1461 1458 1455 1452 1450 1448 1445 1442 1440 1438 1435 1433 1431 1430 1428 1427 1426 1426 1426 1426 1427 1428 1428 1429 1430 1433
1501 1491 1504 1492 1506 1507 1492 1485 1490 1491 1493 1492 1484 1476 1460 1463 1461 1460 1459 1457 1454 1452 1450 1448 1446 1445 1443 1441 1440 1439 1438 1438 1437 1436 1435 1436 1437 1438 1437 1436 1436 1438 1441 1441
1498 1496 1496 1463 1494 1491 1466 1466 1478 1476 1478 1468 1461 1448 1460 1459 1459 1456 1457 1456 1454 1452 1451 1449 1449 1448 1446 1446 1446 1446 1446 1445 1445 1444 1444 1445 1446 1446 1446 1445 1446 1447 1449 1451
1497 1498 1499 1476 1483 1439 1444 1469 1467 1460 1458 1461 1460 1456 1454 1455 1456 1455 1455 1455 1452 1451 1450 1451 1450 1451 1450 1450 1452 1453 1453 1453 1454 1452 1452 1453 1453 1452 1453 1454 1455 1456 1457 1457
1494 1492 1491 1483 1473 1445 1445 1462 1460 1452 1431 1440 1447 1450 1452 1455 1456 1455 1455 1455 1453 1450 1451 1452 1452 1453 1454 1455 1456 1457 1457 1457 1458 1457 1458 1459 1460 1459 1460 1460 1460 1461 1463 1463
1494 1495 1492 1493 1459 1434 1431 1447 1449 1449 1428 1430 1437 1443 1448 1452 1447 1450 1451 1453 1454 1454 1454 1455 1456 1457 1458 1460 1460 1461 1462 1463 1462 1463 1463 1464 1464 1465 1466 1465 1465 1466 1467 1468
1490 1492 1489 1489 1469 1443 1438 1444 1448 1433 1423 1423 1430 1435 1442 1444 1442 1444 1448 1450 1452 1454 1455 1457 1458 1459 1460 1461 1462 1464 1465 1466 1467 1467 1468 1469 1469 1469 1469 1470 1471 1471 1471 1472
1473 1480 1482 1486 1477 1437 1437 1446 1438 1422 1420 1421 1426 1430 1434 1436 1438 1441 1445 1448 1450 1453 1455 1458 1459 1460 1461 1463 1464 1465 1467 1468 1469 1470 1470 1471 1472 1472 1472 1473 1473 1473 1473 1473
1464 1451 1450 1451 1429 1422 1423 1418 1419 1419 1419 1420 1422 1424 1428 1432 1434 1437 1440 1444 1447 1450 1453 1456 1458 1460 1461 1463 1464 1466 1468 1469 1470 1471 1472 1473 1473 1473 1473 1473 1474 1474 1474 1474
1452 1451 1449 1443 1419 1418 1416 1416 1417 1418 1418 1418 1421 1423 1425 1426 1430 1433 1436 1439 1443 1447 1450 1454 1456 1458 1459 1461 1463 1466 1468 1469 1470 1471 1473 1473 1474 1474 1474 1474 1474 1474 1474 1474
1442 1447 1441 1435 1417 1413 1409 1407 1409 1414 1416 1416 1418 1421 1423 1427 1428 1431 1434 1438 1441 1445 1447 1450 1453 1455 1458 1460 1462 1463 1466 1468 1470 1471 1472 1473 1473 1473 1473 1474 1474 1474 1474 1474
1431 1425 1427 1412 1405 1404 1402 1401 1402 1405 1408 1412 1413 1417 1421 1424 1426 1429 1431 1435 1438 1440 1443 1446 1450 1453 1456 1458 1459 1461 1463 1465 1467 1468 1470 1471 1472 1473 1473 1473 1473 1472 1471 1471
Wind_Speed
1 4 4 1 1 1 6 10 19 17 11 10 17 19 18 11 10 6 8 13 16 18 19 18 18 17 15 13 12 13 18 16 14 11 14 19 20 18 16 15 16 17 21 21
3 6 4 1 2 5 7 15 14 9 9 14 17 22 16 9 9 3 10 15 16 19 19 19 18 18 14 13 12 12 15 19 16 12 12 17 19 20 17 17 18 20 23 22
5 2 3 1 3 5 8 10 9 17 22 10 10 10 2 6 8 6 11 13 13 16 20 21 19 18 16 15 13 11 10 16 18 16 12 14 15 15 16 16 15 20 20 22
6 2 2 5 3 2 6 3 12 17 7 5 2 6 4 6 7 7 13 16 16 16 17 18 19 18 17 16 13 9 8 12 16 13 11 11 12 13 13 14 14 19 21 22
2 2 2 3 2 1 7 14 13 3 4 5 5 4 2 3 7 4 14 16 16 16 17 19 18 17 15 15 14 10 6 7 11 10 10 9 10 11 12 13 15 18 19 19
3 0 2 2 2 2 10 6 3 1 2 4 4 2 5 3 2 7 13 17 16 18 17 16 17 16 15 14 13 10 8 6 8 8 8 8 9 9 10 12 14 15 15 15
2 2 2 2 3 3 9 7 4 3 2 3 4 5 9 5 4 5 11 16 14 16 17 16 18 18 16 15 15 11 8 5 5 5 5 6 7 7 8 8 10 13 12 14
2 2 1 2 2 1 6 3 2 7 5 7 2 6 2 1 4 7 10 11 11 15 15 16 15 15 14 15 16 13 10 7 4 1 2 4 4 4 7 6 7 10 12 12
1 2 3 2 1 2 4 2 2 4 2 4 4 4 4 2 5 12 11 11 13 15 16 15 15 14 14 13 14 14 12 8 4 1 2 4 5 6 8 8 7 9 10 10
3 4 1 3 2 5 2 7 1 2 5 7 5 5 5 2 11 15 11 13 13 14 14 14 13 14 13 12 11 11 11 9 6 2 3 5 6 7 9 8 9 9 10 10
4 1 2 2 4 3 3 3 3 2 3 4 6 1 2 3 9 13 12 12 11 12 13 13 13 13 12 10 9 9 8 8 6 4 5 7 9 9 10 12 13 12 12 13
4 1 3 0 1 2 1 2 3 2 2 4 4 6 4 2 5 10 12 9 8 8 11 11 12 12 11 11 10 12 11 10 9 7 8 10 13 13 14 17 18 18 18 20
5 2 4 2 2 2 4 5 3 4 1 6 3 4 3 2 5 7 9 8 6 7 8 10 11 12 12 11 11 11 11 12 10 11 12 15 18 20 23 24 25 28 32 36
6 2 5 4 2 2 3 5 9 4 3 2 8 10 4 6 7 7 8 7 8 8 8 9 9 11 10 10 10 10 11 11 14 17 21 26 30 33 36 38 39 40 39 38
1 4 1 5 2 3 4 5 11 11 4 6 2 5 14 7 5 5 6 6 5 6 7 8 10 9 9 9 9 9 12 15 20 26 31 36 38 39 39 39 40 39 40 40
2 1 1 4 1 3 6 9 11 13 5 12 11 12 5 0 2 3 1 2 2 4 5 5 6 8 10 11 12 13 17 21 27 31 33 33 34 35 36 37 38 37 36 38
4 3 1 4 1 4 6 6 12 5 7 5 5 1 3 4 3 3 2 2 3 5 6 6 8 11 13 15 16 19 21 25 29 33 35 34 33 34 35 35 34 34 33 32
5 3 1 4 3 2 1 1 3 6 6 14 3 5 6 4 4 4 4 9 11 11 13 13 14 16 17 17 18 20 21 23 24 28 29 29 30 31 30 30 29 29 28 26
1 2 1 3 2 7 2 5 7 7 4 14 12 5 6 6 3 3 8 10 14 16 15 16 17 17 18 17 17 19 21 22 22 24 25 25 25 25 25 25 25 24 22 22
4 4 1 2 3 3 2 3 6 2 3 9 15 10 10 11 5 4 15 15 15 15 14 14 14 15 16 17 17 18 19 19 21 21 22 22 22 22 21 21 21 20 18 17
4 4 6 4 5 8 2 6 7 1 3 13 22 23 23 8 4 20 22 20 20 19 19 18 17 17 17 17 18 18 19 18 19 19 19 19 18 17 16 16 16 15 14 13
8 9 5 4 4 6 12 8 6 2 2 20 23 30 30 14 19 26 25 25 24 23 22 21 20 19 19 19 19 17 17 17 17 16 15 15 14 14 14 12 12 12 10 9
4 5 3 9 5 1 31 6 18 4 4 17 27 31 30 23 28 30 29 28 27 26 25 24 22 21 20 19 17 16 15 15 14 13 12 11 11 10 9 8 7 7 6 6
6 6 3 2 3 12 22 32 14 16 9 14 25 28 32 30 30 32 31 31 31 30 29 27 26 24 21 19 18 16 15 14 13 13 12 11 10 9 8 7 6 5 4 4
1 8 4 7 11 14 24 29 30 27 16 13 23 27 32 30 30 31 32 31 30 29 28 27 25 23 21 20 18 17 16 15 13 12 11 10 9 9 9 9 8 8 8 7
11 7 6 6 10 4 6 4 12 29 33 20 24 28 32 33 29 31 31 30 29 29 28 28 26 24 22 21 20 19 18 17 15 14 14 14 14 14 12 12 11 10 9 8
Wind_Direction
34 246 256 256 121 285 286 292 301 304 333 282 268 278 287 254 230 256 321 332 330 325 325 326 329 327 310 295 295 303 270 264 273 261 222 213 217 230 237 252 253 242 242 244
217 242 121 151 236 275 295 304 308 313 273 294 280 287 284 228 230 251 328 337 329 326 330 334 340 338 329 320 314 305 269 263 268 262 230 214 211 218 231 245 253 250 239 239
253 83 131 297 304 305 300 286 310 305 322 276 294 273 232 200 204 224 324 332 330 330 331 333 341 347 340 335 331 322 287 270 265 261 241 223 218 218 230 244 245 247 246 244
259 114 202 266 275 356 309 104 317 319 320 316 3 296 238 186 210 223 338 337 335 335 334 331 338 346 347 342 343 331 299 272 270 265 247 224 221 220 217 237 246 251 250 246
75 192 218 268 144 216 261 321 308 292 260 312 179 258 177 190 220 307 344 341 337 336 334 330 336 346 346 347 348 348 329 281 280 270 252 229 229 232 239 249 251 254 252 247
277 231 245 294 284 232 307 311 281 203 251 248 168 262 266 209 218 317 342 342 337 335 335 332 336 348 354 355 354 357 351 318 291 276 251 238 243 249 254 255 251 256 253 246
192 177 135 322 274 159 17 336 327 271 253 308 167 255 280 178 211 302 330 330 336 334 335 337 341 345 352 360 7 7 6 339 301 279 257 245 246 258 264 237 233 260 254 241
297 246 197 4 32 29 57 10 34 299 316 313 284 240 314 117 250 275 319 325 338 340 340 338 339 339 345 2 12 12 15 9 356 287 235 231 229 255 237 234 243 237 236 230
196 237 118 57 129 282 116 60 87 265 201 274 247 260 144 202 312 324 341 343 352 344 341 338 339 344 348 1 16 13 16 15 16 346 218 196 207 218 208 190 221 220 221 218
124 274 157 134 155 57 42 139 204 159 309 296 280 281 309 341 331 319 341 347 350 342 339 338 345 350 355 7 18 20 14 13 25 53 168 173 174 181 173 178 203 198 190 180
143 253 130 166 201 160 157 161 134 244 243 294 310 349 69 31 319 308 328 340 350 338 331 338 348 358 8 13 23 28 25 32 49 75 118 140 143 152 160 165 165 164 159 154
165 247 258 168 360 325 24 171 165 208 164 237 281 281 144 94 315 301 323 334 346 329 327 341 353 5 14 24 29 36 36 47 62 86 112 131 129 134 140 141 140 137 142 141
164 205 287 193 189 177 225 179 155 109 113 227 270 314 187 211 326 312 321 342 329 308 340 353 6 16 24 32 39 48 54 60 74 101 114 117 119 124 122 121 122 124 124 123
149 259 252 256 311 52 204 188 186 184 213 181 238 294 291 349 352 339 338 345 310 330 355 6 14 21 29 40 50 60 73 90 101 112 118 118 117 116 115 115 115 114 111 109
183 256 234 272 280 250 263 208 192 202 191 235 12 261 305 334 314 312 323 323 323 352 11 21 23 30 41 55 66 80 97 106 113 117 118 118 119 119 119 117 112 110 108 106
141 255 278 268 132 223 269 229 214 228 235 263 286 284 212 190 271 268 270 335 354 42 43 44 54 57 63 71 80 95 104 114 117 114 113 112 110 109 110 110 110 109 111 114
172 201 273 268 287 278 275 218 188 180 199 189 206 192 175 178 163 223 173 132 102 89 85 76 74 79 84 90 99 107 114 116 116 114 113 114 116 115 114 113 113 113 112 112
153 159 209 287 301 272 332 150 209 230 218 210 261 222 211 145 166 227 180 143 134 123 109 103 101 101 101 102 109 113 118 119 117 116 114 116 118 116 113 112 110 110 110 108
221 151 232 282 276 303 184 200 184 186 279 196 194 185 204 172 151 212 187 156 140 132 127 126 123 123 123 129 131 133 133 130 128 120 118 117 116 114 113 111 110 109 108 104
119 88 260 179 255 254 244 189 198 205 276 190 176 175 171 167 174 176 181 162 146 136 133 132 133 135 134 137 138 138 135 133 129 124 124 122 120 119 118 114 108 105 106 106
162 193 212 207 261 280 154 149 158 221 249 184 180 175 165 185 204 164 171 168 161 157 154 152 151 151 149 149 147 143 140 138 133 131 130 129 125 121 116 118 118 116 114 111
175 164 188 178 223 280 152 123 193 208 147 191 180 184 182 178 166 168 173 175 170 168 166 164 164 161 158 155 152 151 149 147 144 142 140 138 134 134 132 131 128 126 120 114
238 206 190 207 220 45 187 215 204 206 179 191 193 192 187 179 176 176 178 180 179 176 174 174 173 172 169 165 161 161 161 162 159 156 156 155 153 150 144 140 140 136 131 128
224 183 250 299 220 234 229 226 232 229 225 212 203 198 191 191 187 185 184 185 186 186 185 183 183 181 178 175 175 174 180 181 178 177 177 176 174 174 176 178 182 181 181 186
140 152 216 259 275 266 261 240 238 228 233 221 208 206 204 201 199 196 193 193 193 193 192 193 191 188 185 187 188 188 189 193 196 194 197 201 204 207 212 216 220 224 226 230
187 187 193 231 230 233 270 289 237 231 224 219 207 208 209 210 211 205 203 201 199 200 200 201 199 197 196 198 199 202 202 203 206 209 214 218 219 221 225 231 235 239 247 254